This is the latest recevied weather packets stored in our database for station/object EA7OC-10. If no packets are shown the sender has not sent any weather packets the latest 10 day(s).
| Time | Temp. | Humidity | Pressure | Rain* | Wind** | Luminosity | Snow |
|---|---|---|---|---|---|---|---|
| 1777974281 | 28.89° C | 31% | 1015.6 hPa | - | - | - | - |
| 1777973381 | 27.78° C | 31% | 1015.6 hPa | - | - | - | - |
| 1777972480 | 27.78° C | 30% | 1015.6 hPa | - | - | - | - |
| 1777971580 | 28.33° C | 31% | 1015.7 hPa | - | - | - | - |
| 1777970680 | 27.78° C | 31% | 1015.8 hPa | - | - | - | - |
| 1777969780 | 28.33° C | 30% | 1015.7 hPa | - | - | - | - |
| 1777968880 | 28.33° C | 31% | 1015.8 hPa | - | - | - | - |
| 1777967980 | 28.33° C | 31% | 1016 hPa | - | - | - | - |
| 1777967080 | 28.33° C | 32% | 1016.1 hPa | - | - | - | - |
| 1777966180 | 27.22° C | 33% | 1016 hPa | - | - | - | - |
| 1777965280 | 25.56° C | 32% | 1016 hPa | - | - | - | - |
| 1777964379 | 24.44° C | 34% | 1016.1 hPa | - | - | - | - |
| 1777963479 | 21.67° C | 34% | 1016 hPa | - | - | - | - |
| 1777962579 | 20° C | 33% | 1015.9 hPa | - | - | - | - |
| 1777961679 | 18.33° C | 35% | 1015.7 hPa | - | - | - | - |
| 1777960779 | 15° C | 33% | 1015.6 hPa | - | - | - | - |
| 1777959879 | 13.33° C | 32% | 1015.5 hPa | - | - | - | - |
| 1777958979 | 12.78° C | 32% | 1015.4 hPa | - | - | - | - |
| 1777958079 | 12.78° C | 31% | 1015.4 hPa | - | - | - | - |
| 1777957179 | 12.78° C | 31% | 1015.3 hPa | - | - | - | - |
| 1777956279 | 12.78° C | 31% | 1015.1 hPa | - | - | - | - |
| 1777955378 | 12.78° C | 31% | 1015.1 hPa | - | - | - | - |
| 1777954478 | 13.33° C | 31% | 1015.2 hPa | - | - | - | - |
| 1777953578 | 13.33° C | 31% | 1015.3 hPa | - | - | - | - |
| 1777952678 | 13.33° C | 31% | 1015.3 hPa | - | - | - | - |
* Rain since midnight (hover to see other rain measurements)
** Current wind speed in m/s (hover to see current wind gust speed)